Time,TemperatureF,DewpointF,PressureIn,WindDirection,WindDirectionDegrees,WindSpeedMPH,WindSpeedGustMPH,Humidity,HourlyPrecipIn,Conditions,Clouds,dailyrainin,SoftwareType,DateUTC
2013-09-05 00:03:00,59.0,50.0,-100.00,NE,35,1.0,4.0,72,0.00,,,-99.99,,2013-09-05 05:03:00,
2013-09-05 00:12:00,59.0,50.0,-100.00,NE,35,1.0,4.0,72,0.00,,,-99.99,,2013-09-05 05:12:00,
2013-09-05 00:52:00,55.0,49.0,-100.00,NE,40,0.0,3.0,78,0.00,,,-99.99,,2013-09-05 05:52:00,
2013-09-05 01:02:00,55.0,49.0,-100.00,NE,40,0.0,3.0,78,0.00,,,-99.99,,2013-09-05 06:02:00,
2013-09-05 01:12:00,55.0,49.0,-100.00,NE,40,0.0,3.0,78,0.00,,,-99.99,,2013-09-05 06:12:00,
2013-09-05 01:52:00,56.0,49.0,-100.00,East,90,2.0,5.0,77,0.00,,,-99.99,,2013-09-05 06:52:00,
2013-09-05 02:01:00,56.0,49.0,-100.00,East,90,2.0,5.0,77,0.00,,,-99.99,,2013-09-05 07:01:00,
2013-09-05 02:12:00,56.0,49.0,-100.00,East,90,2.0,5.0,77,0.00,,,-99.99,,2013-09-05 07:12:00,
2013-09-05 02:52:00,56.0,50.0,-100.00,NE,40,1.0,2.0,80,0.00,,,-99.99,,2013-09-05 07:52:00,
2013-09-05 03:03:00,56.0,50.0,-100.00,NE,40,1.0,2.0,80,0.00,,,-99.99,,2013-09-05 08:03:00,
2013-09-05 03:12:00,56.0,50.0,-100.00,NE,40,1.0,2.0,80,0.00,,,-99.99,,2013-09-05 08:12:00,
2013-09-05 03:52:00,54.0,48.0,-100.00,ESE,105,1.0,4.0,81,0.00,,,-99.99,,2013-09-05 08:52:00,
2013-09-05 04:02:00,54.0,48.0,-100.00,ESE,105,1.0,4.0,81,0.00,,,-99.99,,2013-09-05 09:02:00,
2013-09-05 04:11:00,54.0,48.0,-100.00,ESE,105,1.0,4.0,81,0.00,,,-99.99,,2013-09-05 09:11:00,
2013-09-05 04:54:00,53.0,47.0,-100.00,East,90,4.0,7.0,81,0.00,,,-99.99,,2013-09-05 09:54:00,
2013-09-05 05:03:00,53.0,47.0,-100.00,East,90,4.0,7.0,81,0.00,,,-99.99,,2013-09-05 10:03:00,
2013-09-05 05:12:00,53.0,47.0,-100.00,East,90,4.0,7.0,81,0.00,,,-99.99,,2013-09-05 10:12:00,
2013-09-05 05:53:00,52.0,44.0,-100.00,ESE,105,2.0,7.0,74,0.00,,,-99.99,,2013-09-05 10:53:00,
2013-09-05 06:03:00,52.0,44.0,-100.00,ESE,105,2.0,7.0,74,0.00,,,-99.99,,2013-09-05 11:03:00,
2013-09-05 06:12:00,52.0,44.0,-100.00,ESE,105,2.0,7.0,74,0.00,,,-99.99,,2013-09-05 11:12:00,
2013-09-05 06:52:00,51.0,42.0,-100.00,East,100,3.0,6.0,71,0.00,,,-99.99,,2013-09-05 11:52:00,
2013-09-05 07:01:00,51.0,42.0,-100.00,East,100,3.0,6.0,71,0.00,,,-99.99,,2013-09-05 12:01:00,
2013-09-05 07:13:00,51.0,42.0,-100.00,East,100,3.0,6.0,71,0.00,,,-99.99,,2013-09-05 12:13:00,
2013-09-05 07:52:00,51.0,40.0,-100.00,ESE,120,3.0,7.0,68,0.00,,,-99.99,,2013-09-05 12:52:00,
2013-09-05 08:01:00,51.0,40.0,-100.00,ESE,120,3.0,7.0,68,0.00,,,-99.99,,2013-09-05 13:01:00,
2013-09-05 08:12:00,51.0,40.0,-100.00,ESE,120,3.0,7.0,68,0.00,,,-99.99,,2013-09-05 13:12:00,
2013-09-05 19:52:00,66.0,46.0,-100.00,ESE,115,2.0,4.0,49,0.00,,,-99.99,,2013-09-06 00:52:00,
2013-09-05 20:02:00,66.0,46.0,-100.00,ESE,115,2.0,4.0,49,0.00,,,-99.99,,2013-09-06 01:02:00,
2013-09-05 20:11:00,66.0,46.0,-100.00,ESE,115,2.0,4.0,49,0.00,,,-99.99,,2013-09-06 01:11:00,
2013-09-05 21:52:00,61.0,45.0,-100.00,SSE,150,4.0,7.0,55,0.00,,,-99.99,,2013-09-06 02:52:00,
2013-09-05 22:02:00,61.0,45.0,-100.00,SSE,150,4.0,7.0,55,0.00,,,-99.99,,2013-09-06 03:02:00,
2013-09-05 22:11:00,61.0,45.0,-100.00,SSE,150,4.0,7.0,55,0.00,,,-99.99,,2013-09-06 03:11:00,
2013-09-05 22:55:00,57.0,45.0,-100.00,SE,140,2.0,6.0,64,0.00,,,-99.99,,2013-09-06 03:55:00,
2013-09-05 23:04:00,57.0,45.0,-100.00,SE,140,2.0,6.0,64,0.00,,,-99.99,,2013-09-06 04:04:00,
2013-09-05 23:14:00,57.0,45.0,-100.00,SE,140,2.0,6.0,64,0.00,,,-99.99,,2013-09-06 04:14:00,
2013-09-05 23:54:00,56.0,45.0,-100.00,SE,145,3.0,5.0,66,0.00,,,-99.99,,2013-09-06 04:54:00,